Time,TemperatureF,DewpointF,PressureIn,WindDirection,WindDirectionDegrees,WindSpeedMPH,WindSpeedGustMPH,Humidity,HourlyPrecipIn,Conditions,Clouds,dailyrainin,SoftwareType,DateUTC
2013-03-31 00:00:00,46.8,34.9,29.95,South,175,0.0,0.0,63,0.00,,,0.00,Wunderground v.1.15,2013-03-31 04:00:00,
2013-03-31 00:05:00,46.8,35.3,29.94,South,175,0.0,0.0,64,0.00,,,0.00,Wunderground v.1.15,2013-03-31 04:05:00,
2013-03-31 00:10:00,46.8,35.6,29.94,South,175,0.0,0.0,65,0.00,,,0.00,Wunderground v.1.15,2013-03-31 04:10:00,
2013-03-31 00:20:00,46.7,35.6,29.94,South,175,0.0,0.0,65,0.00,,,0.00,Wunderground v.1.15,2013-03-31 04:20:00,
2013-03-31 00:25:00,46.7,35.6,29.94,South,175,0.0,0.0,65,0.00,,,0.00,Wunderground v.1.15,2013-03-31 04:25:00,
2013-03-31 00:29:00,46.5,35.4,29.94,South,175,0.0,0.0,65,0.00,,,0.00,Wunderground v.1.15,2013-03-31 04:29:00,
2013-03-31 00:35:00,46.4,34.9,29.93,South,175,0.0,0.0,64,0.00,,,0.00,Wunderground v.1.15,2013-03-31 04:35:00,
2013-03-31 00:40:00,46.2,34.7,29.93,South,175,0.0,0.0,64,0.00,,,0.00,Wunderground v.1.15,2013-03-31 04:40:00,
2013-03-31 00:50:00,46.1,34.2,29.93,South,175,0.0,0.0,63,0.00,,,0.00,Wunderground v.1.15,2013-03-31 04:50:00,
2013-03-31 01:00:00,46.1,34.2,29.93,South,175,0.0,0.0,63,0.00,,,0.00,Wunderground v.1.15,2013-03-31 05:00:00,
2013-03-31 01:05:00,46.1,35.0,29.92,South,175,0.0,0.0,65,0.00,,,0.00,Wunderground v.1.15,2013-03-31 05:05:00,
2013-03-31 01:15:00,46.0,34.5,29.92,South,175,0.0,0.0,64,0.00,,,0.00,Wunderground v.1.15,2013-03-31 05:15:00,
2013-03-31 01:20:00,45.8,33.9,29.92,South,175,0.0,0.0,63,0.00,,,0.00,Wunderground v.1.15,2013-03-31 05:20:00,
2013-03-31 01:30:00,45.7,33.4,29.92,South,175,0.0,0.0,62,0.00,,,0.00,Wunderground v.1.15,2013-03-31 05:30:00,
2013-03-31 01:40:00,46.0,34.1,29.91,South,175,0.0,0.0,63,0.00,,,0.00,Wunderground v.1.15,2013-03-31 05:40:00,
2013-03-31 01:50:00,46.1,35.0,29.90,South,175,0.0,0.0,65,0.00,,,0.00,Wunderground v.1.15,2013-03-31 05:50:00,
2013-03-31 01:55:00,46.1,35.4,29.90,South,175,0.0,0.0,66,0.00,,,0.00,Wunderground v.1.15,2013-03-31 05:55:00,
2013-03-31 02:00:00,46.1,35.0,29.90,South,175,0.0,0.0,65,0.00,,,0.00,Wunderground v.1.15,2013-03-31 06:00:00,
2013-03-31 02:10:00,46.0,34.9,29.90,South,175,0.0,0.0,65,0.00,,,0.00,Wunderground v.1.15,2013-03-31 06:10:00,
2013-03-31 02:20:00,45.8,35.1,29.89,South,175,0.0,0.0,66,0.00,,,0.00,Wunderground v.1.15,2013-03-31 06:20:00,
2013-03-31 02:30:00,46.1,35.7,29.89,South,175,0.0,0.0,67,0.00,,,0.00,Wunderground v.1.15,2013-03-31 06:30:00,
2013-03-31 02:39:00,46.2,36.2,29.88,South,175,0.0,0.0,68,0.00,,,0.00,Wunderground v.1.15,2013-03-31 06:39:00,
2013-03-31 02:45:00,46.2,35.8,29.88,South,175,0.0,0.0,67,0.00,,,0.00,Wunderground v.1.15,2013-03-31 06:45:00,
2013-03-31 02:50:00,46.2,35.8,29.88,South,175,0.0,0.0,67,0.00,,,0.00,Wunderground v.1.15,2013-03-31 06:50:00,
2013-03-31 03:00:00,46.5,36.5,29.88,South,175,0.0,0.0,68,0.00,,,0.00,Wunderground v.1.15,2013-03-31 07:00:00,
2013-03-31 03:10:00,46.7,36.7,29.87,South,175,0.0,0.0,68,0.00,,,0.00,Wunderground v.1.15,2013-03-31 07:10:00,
2013-03-31 03:20:00,46.5,36.5,29.86,South,175,0.0,0.0,68,0.00,,,0.00,Wunderground v.1.15,2013-03-31 07:20:00,
2013-03-31 03:30:00,46.5,37.2,29.86,South,175,0.0,0.0,70,0.00,,,0.00,Wunderground v.1.15,2013-03-31 07:30:00,
2013-03-31 03:35:00,46.5,37.6,29.86,South,175,0.0,0.0,71,0.00,,,0.00,Wunderground v.1.15,2013-03-31 07:35:00,
2013-03-31 03:40:00,46.4,38.2,29.86,South,175,0.0,0.0,73,0.00,,,0.00,Wunderground v.1.15,2013-03-31 07:40:00,
2013-03-31 03:50:00,46.4,37.5,29.86,South,175,1.0,1.0,71,0.00,,,0.00,Wunderground v.1.15,2013-03-31 07:50:00,
2013-03-31 04:00:00,46.7,38.1,29.86,South,175,0.0,0.0,72,0.00,,,0.00,Wunderground v.1.15,2013-03-31 08:00:00,
2013-03-31 04:10:00,47.0,38.4,29.85,South,175,0.0,0.0,72,0.00,,,0.00,Wunderground v.1.15,2013-03-31 08:10:00,
2013-03-31 04:20:00,47.1,38.5,29.84,South,175,0.0,1.0,72,0.00,,,0.00,Wunderground v.1.15,2013-03-31 08:20:00,
2013-03-31 04:25:00,47.4,38.8,29.84,South,175,0.0,1.0,72,0.00,,,0.00,Wunderground v.1.15,2013-03-31 08:25:00,
2013-03-31 04:35:00,47.4,40.2,29.84,South,175,0.0,1.0,76,0.00,,,0.00,Wunderground v.1.15,2013-03-31 08:35:00,
2013-03-31 04:40:00,47.0,39.8,29.84,South,175,1.0,1.0,76,0.00,,,0.00,Wunderground v.1.15,2013-03-31 08:40:00,
2013-03-31 04:50:00,46.7,40.2,29.84,South,175,1.0,1.0,78,0.00,,,0.00,Wunderground v.1.15,2013-03-31 08:50:00,
2013-03-31 05:00:00,46.8,39.6,29.84,South,175,0.0,1.0,76,0.00,,,0.00,Wunderground v.1.15,2013-03-31 09:00:00,
2013-03-31 05:10:00,46.8,40.6,29.83,South,175,0.0,0.0,79,0.00,,,0.00,Wunderground v.1.15,2013-03-31 09:10:00,
2013-03-31 05:15:00,46.7,40.9,29.83,South,175,0.0,0.0,80,0.00,,,0.01,Wunderground v.1.15,2013-03-31 09:15:00,
2013-03-31 05:25:00,46.4,41.5,29.83,South,175,0.0,0.0,83,0.00,,,0.01,Wunderground v.1.15,2013-03-31 09:25:00,
2013-03-31 05:35:00,46.1,41.8,29.83,South,175,0.0,0.0,85,0.00,,,0.01,Wunderground v.1.15,2013-03-31 09:35:00,
2013-03-31 05:40:00,46.0,42.0,29.83,South,175,0.0,0.0,86,0.00,,,0.02,Wunderground v.1.15,2013-03-31 09:40:00,
2013-03-31 05:50:00,45.8,42.2,29.82,South,175,0.0,0.0,87,0.00,,,0.02,Wunderground v.1.15,2013-03-31 09:50:00,
2013-03-31 06:00:00,45.7,42.3,29.82,South,175,0.0,0.0,88,0.04,,,0.03,Wunderground v.1.15,2013-03-31 10:00:00,
2013-03-31 06:05:00,45.7,42.6,29.81,South,175,0.0,0.0,89,0.04,,,0.03,Wunderground v.1.15,2013-03-31 10:05:00,
2013-03-31 06:15:00,45.5,42.4,29.81,South,175,0.0,0.0,89,0.04,,,0.04,Wunderground v.1.15,2013-03-31 10:15:00,
2013-03-31 06:20:00,45.4,42.6,29.81,South,175,0.0,0.0,90,0.04,,,0.04,Wunderground v.1.15,2013-03-31 10:20:00,
2013-03-31 06:30:00,45.2,42.7,29.81,South,175,0.0,0.0,91,0.04,,,0.05,Wunderground v.1.15,2013-03-31 10:30:00,
2013-03-31 06:35:00,45.2,42.7,29.81,South,175,0.0,0.0,91,0.04,,,0.05,Wunderground v.1.15,2013-03-31 10:35:00,
2013-03-31 06:45:00,45.2,43.0,29.81,South,175,0.0,0.0,92,0.00,,,0.06,Wunderground v.1.15,2013-03-31 10:45:00,
2013-03-31 06:55:00,45.4,43.2,29.80,South,175,0.0,0.0,92,0.00,,,0.06,Wunderground v.1.15,2013-03-31 10:55:00,
2013-03-31 07:00:00,45.4,43.2,29.80,South,175,0.0,0.0,92,0.00,,,0.06,Wunderground v.1.15,2013-03-31 11:00:00,
2013-03-31 07:10:00,45.5,43.6,29.80,South,175,0.0,0.0,93,0.00,,,0.06,Wunderground v.1.15,2013-03-31 11:10:00,
2013-03-31 07:20:00,45.4,43.5,29.80,South,175,0.0,0.0,93,0.00,,,0.06,Wunderground v.1.15,2013-03-31 11:20:00,
2013-03-31 07:29:00,45.4,43.8,29.80,South,175,0.0,0.0,94,0.00,,,0.06,Wunderground v.1.15,2013-03-31 11:29:00,
2013-03-31 07:35:00,45.2,43.6,29.80,South,175,0.0,0.0,94,0.00,,,0.06,Wunderground v.1.15,2013-03-31 11:35:00,
2013-03-31 07:40:00,45.4,43.8,29.80,South,175,0.0,0.0,94,0.00,,,0.06,Wunderground v.1.15,2013-03-31 11:40:00,
2013-03-31 07:50:00,45.5,44.2,29.80,South,175,0.0,0.0,95,0.00,,,0.06,Wunderground v.1.15,2013-03-31 11:50:00,
2013-03-31 08:00:00,45.7,44.4,29.80,South,175,0.0,0.0,95,0.00,,,0.06,Wunderground v.1.15,2013-03-31 12:00:00,
2013-03-31 08:10:00,46.0,44.6,29.80,South,175,0.0,0.0,95,0.00,,,0.07,Wunderground v.1.15,2013-03-31 12:10:00,
2013-03-31 08:15:00,46.0,44.6,29.80,South,175,0.0,0.0,95,0.00,,,0.07,Wunderground v.1.15,2013-03-31 12:15:00,
2013-03-31 08:25:00,46.0,44.6,29.80,South,175,0.0,0.0,95,0.00,,,0.07,Wunderground v.1.15,2013-03-31 12:25:00,
2013-03-31 08:30:00,46.0,44.6,29.80,South,175,0.0,0.0,95,0.00,,,0.07,Wunderground v.1.15,2013-03-31 12:30:00,
2013-03-31 08:40:00,46.2,45.1,29.80,South,175,0.0,0.0,96,0.00,,,0.07,Wunderground v.1.15,2013-03-31 12:40:00,
2013-03-31 08:50:00,46.4,45.3,29.80,South,175,0.0,0.0,96,0.00,,,0.07,Wunderground v.1.15,2013-03-31 12:50:00,
2013-03-31 09:00:00,46.5,45.4,29.80,South,175,0.0,0.0,96,0.00,,,0.07,Wunderground v.1.15,2013-03-31 13:00:00,
2013-03-31 09:05:00,46.5,45.4,29.79,South,175,0.0,0.0,96,0.00,,,0.07,Wunderground v.1.15,2013-03-31 13:05:00,
2013-03-31 09:15:00,46.8,45.7,29.79,South,175,0.0,0.0,96,0.00,,,0.07,Wunderground v.1.15,2013-03-31 13:15:00,
2013-03-31 09:25:00,47.0,45.9,29.80,South,175,0.0,0.0,96,0.00,,,0.07,Wunderground v.1.15,2013-03-31 13:25:00,
2013-03-31 09:30:00,47.1,46.3,29.80,South,175,0.0,0.0,97,0.00,,,0.08,Wunderground v.1.15,2013-03-31 13:30:00,
2013-03-31 09:40:00,47.4,46.6,29.80,South,175,0.0,0.0,97,0.00,,,0.08,Wunderground v.1.15,2013-03-31 13:40:00,
2013-03-31 09:45:00,47.4,46.6,29.80,South,175,0.0,0.0,97,0.00,,,0.08,Wunderground v.1.15,2013-03-31 13:45:00,
2013-03-31 09:50:00,47.6,46.8,29.79,South,176,0.0,0.0,97,0.00,,,0.08,Wunderground v.1.15,2013-03-31 13:50:00,
2013-03-31 10:00:00,47.7,46.9,29.79,South,176,0.0,1.0,97,0.00,,,0.08,Wunderground v.1.15,2013-03-31 14:00:00,
2013-03-31 10:10:00,47.9,47.1,29.78,South,176,0.0,0.0,97,0.00,,,0.08,Wunderground v.1.15,2013-03-31 14:10:00,
2013-03-31 10:20:00,48.2,47.4,29.78,South,176,0.0,0.0,97,0.00,,,0.08,Wunderground v.1.15,2013-03-31 14:20:00,
2013-03-31 10:29:00,48.6,47.8,29.78,South,176,0.0,0.0,97,0.00,,,0.08,Wunderground v.1.15,2013-03-31 14:29:00,
2013-03-31 10:35:00,48.9,48.4,29.78,South,176,0.0,0.0,98,0.00,,,0.08,Wunderground v.1.15,2013-03-31 14:35:00,
2013-03-31 10:40:00,49.2,48.7,29.78,South,176,0.0,0.0,98,0.00,,,0.08,Wunderground v.1.15,2013-03-31 14:40:00,
2013-03-31 10:49:00,49.6,49.1,29.78,South,176,0.0,0.0,98,0.00,,,0.08,Wunderground v.1.15,2013-03-31 14:49:00,
2013-03-31 10:55:00,49.9,49.4,29.78,South,176,0.0,1.0,98,0.00,,,0.08,Wunderground v.1.15,2013-03-31 14:55:00,
2013-03-31 11:05:00,50.7,50.2,29.78,South,186,0.0,0.0,98,0.00,,,0.08,Wunderground v.1.15,2013-03-31 15:05:00,
2013-03-31 11:15:00,51.1,50.3,29.78,WSW,257,1.0,1.0,97,0.00,,,0.08,Wunderground v.1.15,2013-03-31 15:15:00,
2013-03-31 11:20:00,51.3,50.5,29.77,WSW,244,2.0,2.0,97,0.00,,,0.08,Wunderground v.1.15,2013-03-31 15:20:00,
2013-03-31 11:30:00,51.4,50.6,29.77,West,274,2.0,2.0,97,0.00,,,0.08,Wunderground v.1.15,2013-03-31 15:30:00,
2013-03-31 11:35:00,51.3,50.2,29.79,West,264,2.0,2.0,96,0.00,,,0.08,Wunderground v.1.15,2013-03-31 15:35:00,
2013-03-31 11:45:00,51.3,50.2,29.79,NW,316,1.0,3.0,96,0.00,,,0.08,Wunderground v.1.15,2013-03-31 15:45:00,
2013-03-31 11:50:00,51.6,50.5,29.78,WNW,296,1.0,1.0,96,0.00,,,0.08,Wunderground v.1.15,2013-03-31 15:50:00,
2013-03-31 12:00:00,52.3,51.2,29.78,NW,305,1.0,1.0,96,0.00,,,0.08,Wunderground v.1.15,2013-03-31 16:00:00,
2013-03-31 12:10:00,52.2,50.8,29.78,WNW,298,1.0,1.0,95,0.00,,,0.08,Wunderground v.1.15,2013-03-31 16:10:00,
2013-03-31 12:20:00,52.0,50.3,29.79,WNW,301,2.0,7.0,94,0.00,,,0.08,Wunderground v.1.15,2013-03-31 16:20:00,
2013-03-31 12:30:00,51.7,49.7,29.79,NW,316,3.0,3.0,93,0.00,,,0.08,Wunderground v.1.15,2013-03-31 16:30:00,
2013-03-31 12:40:00,51.6,49.4,29.79,West,281,3.0,3.0,92,0.00,,,0.08,Wunderground v.1.15,2013-03-31 16:40:00,
2013-03-31 12:45:00,51.6,49.1,29.79,West,281,2.0,3.0,91,0.00,,,0.08,Wunderground v.1.15,2013-03-31 16:45:00,
2013-03-31 12:50:00,51.4,48.9,29.79,WNW,291,1.0,3.0,91,0.00,,,0.08,Wunderground v.1.15,2013-03-31 16:50:00,
2013-03-31 13:00:00,51.4,48.9,29.79,West,270,2.0,2.0,91,0.00,,,0.08,Wunderground v.1.15,2013-03-31 17:00:00,
2013-03-31 13:10:00,51.6,49.1,29.80,West,267,1.0,2.0,91,0.00,,,0.08,Wunderground v.1.15,2013-03-31 17:10:00,
2013-03-31 13:15:00,51.7,49.2,29.80,West,265,2.0,3.0,91,0.00,,,0.08,Wunderground v.1.15,2013-03-31 17:15:00,
2013-03-31 13:20:00,51.7,49.2,29.81,WSW,240,1.0,1.0,91,0.00,,,0.08,Wunderground v.1.15,2013-03-31 17:20:00,
2013-03-31 13:30:00,51.6,49.4,29.81,WNW,287,2.0,2.0,92,0.00,,,0.08,Wunderground v.1.15,2013-03-31 17:30:00,
2013-03-31 13:35:00,51.6,49.4,29.80,WSW,247,2.0,3.0,92,0.00,,,0.08,Wunderground v.1.15,2013-03-31 17:35:00,
2013-03-31 13:45:00,51.7,49.5,29.80,West,265,1.0,1.0,92,0.00,,,0.08,Wunderground v.1.15,2013-03-31 17:45:00,
2013-03-31 13:50:00,51.9,49.9,29.80,West,267,1.0,1.0,93,0.00,,,0.08,Wunderground v.1.15,2013-03-31 17:50:00,
2013-03-31 14:00:00,51.7,49.7,29.80,West,268,1.0,1.0,93,0.00,,,0.09,Wunderground v.1.15,2013-03-31 18:00:00,
2013-03-31 14:10:00,51.6,49.9,29.80,West,275,1.0,3.0,94,0.00,,,0.09,Wunderground v.1.15,2013-03-31 18:10:00,
2013-03-31 14:20:00,51.7,50.3,29.80,West,275,0.0,0.0,95,0.00,,,0.09,Wunderground v.1.15,2013-03-31 18:20:00,
2013-03-31 14:30:00,51.6,50.2,29.80,West,264,2.0,2.0,95,0.00,,,0.10,Wunderground v.1.15,2013-03-31 18:30:00,
2013-03-31 14:40:00,51.7,50.3,29.80,WNW,285,2.0,2.0,95,0.00,,,0.10,Wunderground v.1.15,2013-03-31 18:40:00,
2013-03-31 14:50:00,52.2,50.5,29.81,NW,312,2.0,3.0,94,0.00,,,0.10,Wunderground v.1.15,2013-03-31 18:50:00,
2013-03-31 15:00:00,52.2,50.2,29.81,WNW,282,2.0,2.0,93,0.00,,,0.10,Wunderground v.1.15,2013-03-31 19:00:00,
2013-03-31 15:09:00,52.2,49.9,29.81,NW,306,2.0,3.0,92,0.00,,,0.10,Wunderground v.1.15,2013-03-31 19:09:00,
2013-03-31 15:15:00,51.7,49.5,29.81,NW,305,3.0,3.0,92,0.00,,,0.10,Wunderground v.1.15,2013-03-31 19:15:00,
2013-03-31 15:25:00,51.3,48.8,29.81,WNW,285,3.0,3.0,91,0.00,,,0.10,Wunderground v.1.15,2013-03-31 19:25:00,
2013-03-31 15:35:00,51.3,48.8,29.81,WNW,291,2.0,2.0,91,0.00,,,0.10,Wunderground v.1.15,2013-03-31 19:35:00,
2013-03-31 15:45:00,51.1,48.0,29.81,West,280,3.0,6.0,89,0.00,,,0.10,Wunderground v.1.15,2013-03-31 19:45:00,
2013-03-31 15:50:00,51.1,48.0,29.81,WNW,299,4.0,4.0,89,0.00,,,0.10,Wunderground v.1.15,2013-03-31 19:50:00,
2013-03-31 15:55:00,51.4,48.3,29.81,West,265,3.0,4.0,89,0.00,,,0.10,Wunderground v.1.15,2013-03-31 19:55:00,
2013-03-31 16:05:00,51.4,48.0,29.81,WNW,282,2.0,4.0,88,0.00,,,0.10,Wunderground v.1.15,2013-03-31 20:05:00,
2013-03-31 16:15:00,51.6,47.9,29.81,WSW,256,2.0,8.0,87,0.00,,,0.10,Wunderground v.1.15,2013-03-31 20:15:00,
2013-03-31 16:20:00,51.6,47.9,29.81,SW,229,2.0,7.0,87,0.00,,,0.10,Wunderground v.1.15,2013-03-31 20:20:00,
2013-03-31 16:30:00,52.5,47.8,29.81,SW,222,4.0,7.0,84,0.00,,,0.10,Wunderground v.1.15,2013-03-31 20:30:00,
2013-03-31 16:40:00,53.1,47.7,29.80,West,270,3.0,3.0,82,0.00,,,0.10,Wunderground v.1.15,2013-03-31 20:40:00,
2013-03-31 16:50:00,53.5,47.5,29.79,WNW,288,3.0,3.0,80,0.00,,,0.10,Wunderground v.1.15,2013-03-31 20:50:00,
2013-03-31 17:00:00,53.2,47.2,29.79,West,267,4.0,4.0,80,0.00,,,0.10,Wunderground v.1.15,2013-03-31 21:00:00,
2013-03-31 17:05:00,53.3,47.3,29.79,West,261,4.0,4.0,80,0.00,,,0.10,Wunderground v.1.15,2013-03-31 21:05:00,
2013-03-31 17:15:00,54.1,47.7,29.79,WNW,301,2.0,4.0,79,0.00,,,0.10,Wunderground v.1.15,2013-03-31 21:15:00,
2013-03-31 17:20:00,54.2,47.1,29.78,WNW,288,3.0,3.0,77,0.00,,,0.10,Wunderground v.1.15,2013-03-31 21:20:00,
2013-03-31 17:30:00,54.7,46.9,29.78,West,277,2.0,5.0,75,0.00,,,0.10,Wunderground v.1.15,2013-03-31 21:30:00,
2013-03-31 17:40:00,55.0,46.9,29.77,SW,217,2.0,2.0,74,0.00,,,0.10,Wunderground v.1.15,2013-03-31 21:40:00,
2013-03-31 17:49:00,55.0,46.9,29.77,WSW,241,2.0,2.0,74,0.00,,,0.10,Wunderground v.1.15,2013-03-31 21:49:00,
2013-03-31 17:55:00,54.7,46.9,29.77,WSW,241,2.0,2.0,75,0.00,,,0.10,Wunderground v.1.15,2013-03-31 21:55:00,
2013-03-31 18:00:00,54.5,46.7,29.77,WNW,287,3.0,3.0,75,0.00,,,0.10,Wunderground v.1.15,2013-03-31 22:00:00,
2013-03-31 18:10:00,54.5,46.7,29.78,West,272,1.0,6.0,75,0.00,,,0.10,Wunderground v.1.15,2013-03-31 22:10:00,
2013-03-31 18:20:00,54.2,46.4,29.79,West,264,3.0,3.0,75,0.00,,,0.10,Wunderground v.1.15,2013-03-31 22:20:00,
2013-03-31 18:25:00,54.2,46.8,29.79,SW,227,2.0,7.0,76,0.00,,,0.10,Wunderground v.1.15,2013-03-31 22:25:00,
2013-03-31 18:35:00,54.1,46.3,29.80,SW,220,3.0,3.0,75,0.00,,,0.10,Wunderground v.1.15,2013-03-31 22:35:00,
2013-03-31 18:40:00,54.2,46.4,29.80,SW,236,2.0,2.0,75,0.00,,,0.10,Wunderground v.1.15,2013-03-31 22:40:00,
2013-03-31 18:50:00,54.4,46.6,29.79,WSW,251,3.0,3.0,75,0.00,,,0.10,Wunderground v.1.15,2013-03-31 22:50:00,
2013-03-31 19:00:00,54.5,46.4,29.79,SW,215,2.0,2.0,74,0.00,,,0.10,Wunderground v.1.15,2013-03-31 23:00:00,
2013-03-31 19:10:00,54.2,46.4,29.80,West,267,2.0,2.0,75,0.00,,,0.10,Wunderground v.1.15,2013-03-31 23:10:00,
2013-03-31 19:20:00,53.9,46.2,29.80,SW,234,2.0,2.0,75,0.00,,,0.10,Wunderground v.1.15,2013-03-31 23:20:00,
2013-03-31 19:25:00,53.8,46.1,29.80,WSW,247,2.0,2.0,75,0.00,,,0.10,Wunderground v.1.15,2013-03-31 23:25:00,
2013-03-31 19:35:00,53.5,46.1,29.79,WSW,248,2.0,3.0,76,0.00,,,0.10,Wunderground v.1.15,2013-03-31 23:35:00,
2013-03-31 19:40:00,53.3,45.9,29.79,WSW,248,2.0,2.0,76,0.00,,,0.10,Wunderground v.1.15,2013-03-31 23:40:00,
2013-03-31 19:50:00,53.1,45.7,29.80,WSW,248,1.0,1.0,76,0.00,,,0.10,Wunderground v.1.15,2013-03-31 23:50:00,
2013-03-31 20:00:00,52.6,45.6,29.80,WSW,248,0.0,0.0,77,0.00,,,0.10,Wunderground v.1.15,2013-04-01 00:00:00,
2013-03-31 20:10:00,52.0,45.4,29.81,WSW,248,0.0,0.0,78,0.00,,,0.10,Wunderground v.1.15,2013-04-01 00:10:00,
2013-03-31 20:15:00,51.7,45.4,29.81,WSW,248,0.0,0.0,79,0.00,,,0.10,Wunderground v.1.15,2013-04-01 00:15:00,
2013-03-31 20:25:00,51.0,45.0,29.80,WSW,248,0.0,0.0,80,0.00,,,0.10,Wunderground v.1.15,2013-04-01 00:25:00,
2013-03-31 20:35:00,50.1,45.1,29.81,WSW,248,0.0,0.0,83,0.00,,,0.10,Wunderground v.1.15,2013-04-01 00:35:00,
2013-03-31 20:40:00,49.6,45.0,29.81,WSW,248,0.0,0.0,84,0.00,,,0.10,Wunderground v.1.15,2013-04-01 00:40:00,
2013-03-31 20:50:00,48.9,44.6,29.81,WSW,248,0.0,0.0,85,0.00,,,0.10,Wunderground v.1.15,2013-04-01 00:50:00,
2013-03-31 20:59:00,48.2,44.5,29.81,WSW,248,0.0,0.0,87,0.00,,,0.10,Wunderground v.1.15,2013-04-01 00:59:00,
2013-03-31 21:05:00,47.7,44.0,29.81,WSW,248,0.0,0.0,87,0.00,,,0.10,Wunderground v.1.15,2013-04-01 01:05:00,
2013-03-31 21:10:00,47.3,43.9,29.81,WSW,248,0.0,0.0,88,0.00,,,0.10,Wunderground v.1.15,2013-04-01 01:10:00,
2013-03-31 21:20:00,46.5,43.4,29.81,WSW,248,0.0,0.0,89,0.00,,,0.10,Wunderground v.1.15,2013-04-01 01:20:00,
2013-03-31 21:30:00,46.1,43.3,29.81,WSW,248,0.0,0.0,90,0.00,,,0.10,Wunderground v.1.15,2013-04-01 01:30:00,
2013-03-31 21:40:00,45.7,43.2,29.82,WSW,248,0.0,0.0,91,0.00,,,0.10,Wunderground v.1.15,2013-04-01 01:40:00,
2013-03-31 21:49:00,45.1,42.6,29.82,WSW,248,0.0,0.0,91,0.00,,,0.10,Wunderground v.1.15,2013-04-01 01:49:00,
2013-03-31 21:55:00,44.9,42.7,29.82,WSW,248,0.0,1.0,92,0.00,,,0.10,Wunderground v.1.15,2013-04-01 01:55:00,
2013-03-31 22:00:00,44.8,42.6,29.82,WSW,248,0.0,0.0,92,0.00,,,0.10,Wunderground v.1.15,2013-04-01 02:00:00,
2013-03-31 22:10:00,44.5,42.3,29.82,WSW,248,0.0,0.0,92,0.00,,,0.10,Wunderground v.1.15,2013-04-01 02:10:00,
2013-03-31 22:20:00,44.5,42.9,29.82,WSW,248,0.0,0.0,94,0.00,,,0.10,Wunderground v.1.15,2013-04-01 02:20:00,
2013-03-31 22:29:00,44.6,43.0,29.82,WSW,248,0.0,0.0,94,0.00,,,0.10,Wunderground v.1.15,2013-04-01 02:29:00,
2013-03-31 22:35:00,44.5,42.9,29.82,WSW,248,0.0,0.0,94,0.00,,,0.10,Wunderground v.1.15,2013-04-01 02:35:00,
2013-03-31 22:40:00,44.6,43.0,29.82,WSW,248,0.0,0.0,94,0.00,,,0.10,Wunderground v.1.15,2013-04-01 02:40:00,
2013-03-31 22:50:00,44.3,42.4,29.82,WSW,248,0.0,0.0,93,0.00,,,0.10,Wunderground v.1.15,2013-04-01 02:50:00,
2013-03-31 23:00:00,43.9,42.3,29.82,WSW,248,0.0,0.0,94,0.00,,,0.10,Wunderground v.1.15,2013-04-01 03:00:00,
2013-03-31 23:05:00,43.6,42.0,29.82,WSW,248,0.0,0.0,94,0.00,,,0.10,Wunderground v.1.15,2013-04-01 03:05:00,
2013-03-31 23:15:00,43.6,42.0,29.82,WSW,248,0.0,1.0,94,0.00,,,0.10,Wunderground v.1.15,2013-04-01 03:15:00,
2013-03-31 23:20:00,43.8,42.2,29.81,WSW,248,0.0,0.0,94,0.00,,,0.10,Wunderground v.1.15,2013-04-01 03:20:00,
2013-03-31 23:30:00,44.2,42.9,29.81,WSW,248,0.0,1.0,95,0.00,,,0.10,Wunderground v.1.15,2013-04-01 03:30:00,
2013-03-31 23:35:00,44.6,43.3,29.81,WSW,248,0.0,1.0,95,0.00,,,0.10,Wunderground v.1.15,2013-04-01 03:35:00,
2013-03-31 23:45:00,45.2,43.9,29.81,WSW,248,1.0,1.0,95,0.00,,,0.10,Wunderground v.1.15,2013-04-01 03:45:00,
2013-03-31 23:50:00,45.5,43.9,29.81,WSW,248,1.0,1.0,94,0.00,,,0.10,Wunderground v.1.15,2013-04-01 03:50:00,